Time,TemperatureF,DewpointF,PressureIn,WindDirection,WindDirectionDegrees,WindSpeedMPH,WindSpeedGustMPH,Humidity,HourlyPrecipIn,Conditions,Clouds,dailyrainin,SolarRadiationWatts/m^2,SoftwareType,DateUTC
2013-06-24 00:01:00,63.4,53.8,29.75,SSW,200,9.0,9.0,71,0.00,,CLR,0.00,0.00,VWS V14.00,2013-06-24 05:01:00,
2013-06-24 00:06:00,63.4,53.8,29.75,SSW,195,7.0,9.0,71,0.00,,CLR,0.00,0.00,VWS V14.00,2013-06-24 05:06:00,
2013-06-24 00:11:00,63.0,53.8,29.75,SSW,193,7.0,9.0,72,0.00,,CLR,0.00,0.00,VWS V14.00,2013-06-24 05:11:00,
2013-06-24 00:16:00,62.2,53.8,29.75,South,189,6.0,9.0,74,0.00,,CLR,0.00,0.00,VWS V14.00,2013-06-24 05:16:00,
2013-06-24 00:21:00,61.5,53.5,29.75,SSW,192,6.0,11.0,75,0.00,,CLR,0.00,0.00,VWS V14.00,2013-06-24 05:21:00,
2013-06-24 00:26:00,62.3,53.5,29.75,SSW,194,7.0,13.0,73,0.00,,CLR,0.00,0.00,VWS V14.00,2013-06-24 05:26:00,
2013-06-24 00:31:00,62.5,53.4,29.75,SSW,194,5.0,7.0,72,0.00,,CLR,0.00,0.00,VWS V14.00,2013-06-24 05:31:00,
2013-06-24 00:37:00,62.2,53.1,29.75,SSW,196,8.0,10.0,72,0.00,,CLR,0.00,0.00,VWS V14.00,2013-06-24 05:37:00,
2013-06-24 00:46:00,63.5,53.2,29.75,SSW,197,7.0,13.0,69,0.00,,CLR,0.00,0.00,VWS V14.00,2013-06-24 05:46:00,
2013-06-24 00:51:00,63.8,53.0,29.75,SSW,203,10.0,13.0,68,0.00,,CLR,0.00,0.00,VWS V14.00,2013-06-24 05:51:00,
2013-06-24 00:56:00,63.8,52.7,29.76,SSW,204,10.0,14.0,67,0.00,,CLR,0.00,0.00,VWS V14.00,2013-06-24 05:56:00,
2013-06-24 01:02:00,63.6,52.9,29.76,SSW,205,10.0,12.0,68,0.00,,CLR,0.00,0.00,VWS V14.00,2013-06-24 06:02:00,
2013-06-24 01:07:00,63.4,52.7,29.76,SSW,201,10.0,12.0,68,0.00,,CLR,0.00,0.00,VWS V14.00,2013-06-24 06:07:00,
2013-06-24 01:12:00,63.4,52.7,29.76,SSW,199,9.0,12.0,68,0.00,,CLR,0.00,0.00,VWS V14.00,2013-06-24 06:12:00,
2013-06-24 01:18:00,63.2,52.5,29.76,SSW,201,9.0,12.0,68,0.00,,CLR,0.00,0.00,VWS V14.00,2013-06-24 06:18:00,
2013-06-24 01:24:00,63.2,52.5,29.76,SSW,199,9.0,12.0,68,0.00,,CLR,0.00,0.00,VWS V14.00,2013-06-24 06:24:00,
2013-06-24 01:30:00,63.5,52.4,29.76,SSW,205,9.0,14.0,67,0.00,,CLR,0.00,0.00,VWS V14.00,2013-06-24 06:30:00,
2013-06-24 01:35:00,63.6,52.5,29.76,SSW,198,10.0,14.0,67,0.00,,CLR,0.00,0.00,VWS V14.00,2013-06-24 06:35:00,
2013-06-24 01:40:00,63.5,52.4,29.76,SSW,200,9.0,14.0,67,0.00,,CLR,0.00,0.00,VWS V14.00,2013-06-24 06:40:00,
2013-06-24 01:45:00,63.2,52.5,29.76,SSW,201,7.0,14.0,68,0.00,,CLR,0.00,0.00,VWS V14.00,2013-06-24 06:45:00,
2013-06-24 01:50:00,63.0,52.3,29.76,SSW,198,11.0,14.0,68,0.00,,CLR,0.00,0.00,VWS V14.00,2013-06-24 06:50:00,
2013-06-24 01:56:00,63.0,52.3,29.76,SSW,199,10.0,15.0,68,0.00,,CLR,0.00,0.00,VWS V14.00,2013-06-24 06:56:00,
2013-06-24 02:01:00,62.9,52.2,29.76,SSW,198,11.0,12.0,68,0.00,,CLR,0.00,0.00,VWS V14.00,2013-06-24 07:01:00,
2013-06-24 02:06:00,63.2,52.5,29.76,SSW,200,8.0,12.0,68,0.00,,CLR,0.00,0.00,VWS V14.00,2013-06-24 07:06:00,
2013-06-24 02:11:00,63.1,52.4,29.76,SSW,202,12.0,12.0,68,0.00,,CLR,0.00,0.00,VWS V14.00,2013-06-24 07:11:00,
2013-06-24 02:17:00,63.0,52.3,29.76,SSW,200,7.0,13.0,68,0.00,,CLR,0.00,0.00,VWS V14.00,2013-06-24 07:17:00,
2013-06-24 02:22:00,62.9,52.2,29.76,SSW,202,10.0,13.0,68,0.00,,CLR,0.00,0.00,VWS V14.00,2013-06-24 07:22:00,
2013-06-24 02:27:00,62.8,52.1,29.76,SSW,194,9.0,13.0,68,0.00,,CLR,0.00,0.00,VWS V14.00,2013-06-24 07:27:00,
2013-06-24 02:32:00,63.0,52.3,29.76,SSW,202,7.0,13.0,68,0.00,,CLR,0.00,0.00,VWS V14.00,2013-06-24 07:32:00,
2013-06-24 02:37:00,63.1,52.4,29.76,SSW,199,9.0,13.0,68,0.00,,CLR,0.00,0.00,VWS V14.00,2013-06-24 07:37:00,
2013-06-24 02:42:00,63.0,51.9,29.76,SSW,198,8.0,13.0,67,0.00,,CLR,0.00,0.00,VWS V14.00,2013-06-24 07:42:00,
2013-06-24 02:49:00,62.9,52.2,29.75,SSW,198,6.0,13.0,68,0.00,,CLR,0.00,0.00,VWS V14.00,2013-06-24 07:49:00,
2013-06-24 02:54:00,62.7,52.0,29.75,SSW,198,4.0,13.0,68,0.00,,CLR,0.00,0.00,VWS V14.00,2013-06-24 07:54:00,
2013-06-24 03:00:00,62.1,52.2,29.75,SSW,198,2.0,13.0,70,0.00,,CLR,0.00,0.00,VWS V14.00,2013-06-24 08:00:00,
2013-06-24 03:06:00,60.2,51.5,29.75,SSW,195,0.0,3.0,73,0.00,,CLR,0.00,0.00,VWS V14.00,2013-06-24 08:06:00,
2013-06-24 03:13:00,59.4,51.5,29.75,SSW,194,1.0,3.0,75,0.00,,CLR,0.00,0.00,VWS V14.00,2013-06-24 08:13:00,
2013-06-24 03:18:00,59.5,51.6,29.75,SSW,194,0.0,3.0,75,0.00,,CLR,0.00,0.00,VWS V14.00,2013-06-24 08:18:00,
2013-06-24 03:23:00,59.5,51.6,29.75,SSW,193,2.0,3.0,75,0.00,,CLR,0.00,0.00,VWS V14.00,2013-06-24 08:23:00,
2013-06-24 03:28:00,59.5,51.6,29.75,South,190,2.0,3.0,75,0.00,,CLR,0.00,0.00,VWS V14.00,2013-06-24 08:28:00,
2013-06-24 03:35:00,59.6,51.7,29.75,South,190,3.0,3.0,75,0.00,,CLR,0.00,0.00,VWS V14.00,2013-06-24 08:35:00,
2013-06-24 03:41:00,59.7,51.8,29.75,South,190,4.0,5.0,75,0.00,,CLR,0.00,0.00,VWS V14.00,2013-06-24 08:41:00,
2013-06-24 03:46:00,59.4,51.8,29.75,South,190,4.0,6.0,76,0.00,,CLR,0.00,0.00,VWS V14.00,2013-06-24 08:46:00,
2013-06-24 03:51:00,59.1,51.9,29.75,South,190,3.0,6.0,77,0.00,,CLR,0.00,0.00,VWS V14.00,2013-06-24 08:51:00,
2013-06-24 03:56:00,59.1,51.9,29.75,South,190,4.0,6.0,77,0.00,,CLR,0.00,0.00,VWS V14.00,2013-06-24 08:56:00,
2013-06-24 04:01:00,59.1,51.9,29.75,South,190,3.0,4.0,77,0.00,,CLR,0.00,0.00,VWS V14.00,2013-06-24 09:01:00,
2013-06-24 04:06:00,59.2,52.0,29.74,South,190,3.0,5.0,77,0.00,,CLR,0.00,0.00,VWS V14.00,2013-06-24 09:06:00,
2013-06-24 04:11:00,59.1,51.9,29.74,South,190,4.0,5.0,77,0.00,,CLR,0.00,0.00,VWS V14.00,2013-06-24 09:11:00,
2013-06-24 04:17:00,58.7,51.9,29.74,South,190,3.0,5.0,78,0.00,,CLR,0.00,0.00,VWS V14.00,2013-06-24 09:17:00,
2013-06-24 04:23:00,58.5,51.7,29.74,South,190,2.0,5.0,78,0.00,,CLR,0.00,0.00,VWS V14.00,2013-06-24 09:23:00,
2013-06-24 04:28:00,58.4,51.6,29.74,South,190,3.0,5.0,78,0.00,,CLR,0.00,0.00,VWS V14.00,2013-06-24 09:28:00,
2013-06-24 04:33:00,58.4,51.6,29.74,South,190,2.0,4.0,78,0.00,,CLR,0.00,0.00,VWS V14.00,2013-06-24 09:33:00,
2013-06-24 04:38:00,58.4,51.6,29.74,South,190,2.0,4.0,78,0.00,,CLR,0.00,0.00,VWS V14.00,2013-06-24 09:38:00,
2013-06-24 04:43:00,58.2,51.4,29.74,South,190,2.0,4.0,78,0.00,,CLR,0.00,0.00,VWS V14.00,2013-06-24 09:43:00,
2013-06-24 04:49:00,58.2,51.4,29.74,South,190,3.0,4.0,78,0.00,,CLR,0.00,0.00,VWS V14.00,2013-06-24 09:49:00,
2013-06-24 04:54:00,57.8,51.3,29.73,South,190,2.0,4.0,79,0.00,,CLR,0.00,0.00,VWS V14.00,2013-06-24 09:54:00,
2013-06-24 04:59:00,57.2,51.1,29.74,South,190,4.0,5.0,80,0.00,,CLR,0.00,0.00,VWS V14.00,2013-06-24 09:59:00,
2013-06-24 05:05:00,56.7,51.3,29.74,South,190,4.0,5.0,82,0.00,,CLR,0.00,0.00,VWS V14.00,2013-06-24 10:05:00,
2013-06-24 05:10:00,56.3,51.2,29.74,South,190,5.0,5.0,83,0.00,,CLR,0.00,0.00,VWS V14.00,2013-06-24 10:10:00,
2013-06-24 05:15:00,56.0,51.2,29.74,South,190,4.0,5.0,84,0.00,,CLR,0.00,0.00,VWS V14.00,2013-06-24 10:15:00,
2013-06-24 05:20:00,55.9,51.1,29.74,South,190,5.0,6.0,84,0.00,,CLR,0.00,0.00,VWS V14.00,2013-06-24 10:20:00,
2013-06-24 05:25:00,55.8,51.0,29.74,South,190,5.0,6.0,84,0.00,,CLR,0.00,0.00,VWS V14.00,2013-06-24 10:25:00,
2013-06-24 05:31:00,55.6,50.8,29.74,South,190,5.0,6.0,84,0.00,,CLR,0.00,0.00,VWS V14.00,2013-06-24 10:31:00,
2013-06-24 05:36:00,55.3,50.9,29.74,South,189,6.0,6.0,85,0.00,,CLR,0.00,0.00,VWS V14.00,2013-06-24 10:36:00,
2013-06-24 05:42:00,55.2,51.1,29.75,South,189,6.0,6.0,86,0.00,,CLR,0.00,5.00,VWS V14.00,2013-06-24 10:42:00,
2013-06-24 05:47:00,55.3,51.2,29.75,South,188,4.0,6.0,86,0.00,,CLR,0.00,7.00,VWS V14.00,2013-06-24 10:47:00,
2013-06-24 05:52:00,55.3,51.2,29.75,South,184,5.0,6.0,86,0.00,,CLR,0.00,7.00,VWS V14.00,2013-06-24 10:52:00,
2013-06-24 05:58:00,55.2,51.1,29.75,South,174,6.0,7.0,86,0.00,,CLR,0.00,9.00,VWS V14.00,2013-06-24 10:58:00,
2013-06-24 06:04:00,55.0,50.9,29.75,SSE,165,5.0,7.0,86,0.00,,CLR,0.00,12.00,VWS V14.00,2013-06-24 11:04:00,
2013-06-24 06:11:00,54.9,51.1,29.76,SSE,165,4.0,7.0,87,0.00,,CLR,0.00,14.00,VWS V14.00,2013-06-24 11:11:00,
2013-06-24 06:16:00,54.9,51.1,29.76,SSE,165,4.0,7.0,87,0.00,,CLR,0.00,16.00,VWS V14.00,2013-06-24 11:16:00,
2013-06-24 06:22:00,54.9,51.1,29.76,SSE,165,4.0,7.0,87,0.00,,CLR,0.00,18.00,VWS V14.00,2013-06-24 11:22:00,
2013-06-24 06:27:00,55.1,51.3,29.76,SSE,165,4.0,7.0,87,0.00,,CLR,0.00,21.00,VWS V14.00,2013-06-24 11:27:00,
2013-06-24 06:33:00,55.6,51.5,29.75,SSE,165,4.0,5.0,86,0.00,,CLR,0.00,23.00,VWS V14.00,2013-06-24 11:33:00,
2013-06-24 06:38:00,56.2,51.8,29.75,SSE,165,4.0,5.0,85,0.00,,CLR,0.00,25.00,VWS V14.00,2013-06-24 11:38:00,
2013-06-24 06:43:00,56.5,51.7,29.75,SSE,165,5.0,5.0,84,0.00,,CLR,0.00,26.00,VWS V14.00,2013-06-24 11:43:00,
2013-06-24 06:48:00,56.5,52.0,29.75,SSE,165,5.0,6.0,85,0.00,,CLR,0.00,30.00,VWS V14.00,2013-06-24 11:48:00,
2013-06-24 06:54:00,56.7,52.2,29.75,SSE,165,4.0,6.0,85,0.00,,CLR,0.00,37.00,VWS V14.00,2013-06-24 11:54:00,
2013-06-24 07:01:00,57.0,52.5,29.75,SSE,165,4.0,5.0,85,0.00,,CLR,0.00,42.00,VWS V14.00,2013-06-24 12:01:00,
2013-06-24 07:06:00,57.3,52.8,29.75,SSE,165,3.0,5.0,85,0.00,,CLR,0.00,46.00,VWS V14.00,2013-06-24 12:06:00,
2013-06-24 07:11:00,57.6,52.8,29.75,SSE,165,4.0,5.0,84,0.00,,CLR,0.00,51.00,VWS V14.00,2013-06-24 12:11:00,
2013-06-24 07:16:00,58.1,53.6,29.75,SSE,165,4.0,5.0,85,0.00,,CLR,0.00,58.00,VWS V14.00,2013-06-24 12:16:00,
2013-06-24 07:21:00,58.7,54.2,29.75,SSE,165,2.0,5.0,85,0.00,,CLR,0.00,60.00,VWS V14.00,2013-06-24 12:21:00,
2013-06-24 07:26:00,59.3,54.5,29.75,SSE,165,4.0,5.0,84,0.00,,CLR,0.00,62.00,VWS V14.00,2013-06-24 12:26:00,
2013-06-24 07:31:00,60.0,54.8,29.75,SSE,165,5.0,5.0,83,0.00,,CLR,0.00,86.00,VWS V14.00,2013-06-24 12:31:00,
2013-06-24 07:36:00,60.6,55.1,29.75,SSE,165,5.0,6.0,82,0.00,,CLR,0.00,165.00,VWS V14.00,2013-06-24 12:36:00,
2013-06-24 07:44:00,61.2,55.3,29.74,SSE,160,3.0,7.0,81,0.00,,CLR,0.00,169.00,VWS V14.00,2013-06-24 12:44:00,
2013-06-24 07:49:00,61.7,56.2,29.74,SSE,160,3.0,7.0,82,0.00,,CLR,0.00,193.00,VWS V14.00,2013-06-24 12:49:00,
2013-06-24 07:54:00,62.0,56.5,29.74,SSE,160,4.0,7.0,82,0.00,,CLR,0.00,225.00,VWS V14.00,2013-06-24 12:54:00,
2013-06-24 08:00:00,62.6,56.7,29.74,SSE,160,6.0,7.0,81,0.00,,CLR,0.00,236.00,VWS V14.00,2013-06-24 13:00:00,
2013-06-24 08:05:00,63.1,57.2,29.73,SSE,159,6.0,6.0,81,0.00,,CLR,0.00,272.00,VWS V14.00,2013-06-24 13:05:00,
2013-06-24 08:10:00,63.7,57.1,29.73,SSE,159,4.0,6.0,79,0.00,,CLR,0.00,306.00,VWS V14.00,2013-06-24 13:10:00,
2013-06-24 08:15:00,64.4,57.8,29.74,SSE,159,4.0,6.0,79,0.00,,CLR,0.00,323.00,VWS V14.00,2013-06-24 13:15:00,
2013-06-24 08:21:00,65.0,57.6,29.74,SSE,159,4.0,6.0,77,0.00,,CLR,0.00,311.00,VWS V14.00,2013-06-24 13:21:00,
2013-06-24 08:26:00,65.3,58.3,29.74,SSE,159,2.0,6.0,78,0.00,,CLR,0.00,323.00,VWS V14.00,2013-06-24 13:26:00,
2013-06-24 08:32:00,65.7,58.7,29.74,SSE,159,5.0,6.0,78,0.00,,CLR,0.00,295.00,VWS V14.00,2013-06-24 13:32:00,
2013-06-24 08:38:00,66.0,58.2,29.73,SSE,159,3.0,6.0,76,0.00,,CLR,0.00,385.00,VWS V14.00,2013-06-24 13:38:00,
2013-06-24 08:45:00,66.1,58.3,29.73,SSE,155,6.0,7.0,76,0.00,,CLR,0.00,299.00,VWS V14.00,2013-06-24 13:45:00,
2013-06-24 08:51:00,66.5,58.7,29.73,SSE,151,6.0,8.0,76,0.00,,CLR,0.00,302.00,VWS V14.00,2013-06-24 13:51:00,
2013-06-24 08:56:00,66.9,59.1,29.72,SSE,147,5.0,8.0,76,0.00,,CLR,0.00,241.00,VWS V14.00,2013-06-24 13:56:00,
2013-06-24 09:01:00,67.2,59.4,29.72,SSE,147,4.0,6.0,76,0.00,,CLR,0.00,271.00,VWS V14.00,2013-06-24 14:01:00,
2013-06-24 09:06:00,67.6,59.8,29.72,SE,144,3.0,7.0,76,0.00,,CLR,0.00,396.00,VWS V14.00,2013-06-24 14:06:00,
2013-06-24 09:13:00,68.0,59.8,29.72,SE,144,4.0,7.0,75,0.00,,CLR,0.00,443.00,VWS V14.00,2013-06-24 14:13:00,
2013-06-24 09:18:00,68.4,60.5,29.72,SE,139,7.0,8.0,76,0.00,,CLR,0.00,475.00,VWS V14.00,2013-06-24 14:18:00,
2013-06-24 09:23:00,68.8,60.6,29.72,SE,134,6.0,9.0,75,0.00,,CLR,0.00,466.00,VWS V14.00,2013-06-24 14:23:00,
2013-06-24 09:28:00,69.3,61.4,29.71,SE,144,9.0,12.0,76,0.00,,CLR,0.00,469.00,VWS V14.00,2013-06-24 14:28:00,
2013-06-24 09:33:00,69.4,60.8,29.71,SSE,151,9.0,12.0,74,0.00,,CLR,0.00,459.00,VWS V14.00,2013-06-24 14:33:00,
2013-06-24 09:38:00,69.6,61.0,29.72,SSE,157,7.0,12.0,74,0.00,,CLR,0.00,536.00,VWS V14.00,2013-06-24 14:38:00,
2013-06-24 09:43:00,70.3,62.0,29.72,SSE,153,11.0,13.0,75,0.00,,CLR,0.00,538.00,VWS V14.00,2013-06-24 14:43:00,
2013-06-24 09:49:00,70.4,61.7,29.72,SSE,157,7.0,13.0,74,0.00,,CLR,0.00,548.00,VWS V14.00,2013-06-24 14:49:00,
2013-06-24 09:54:00,70.8,62.1,29.72,SSE,147,8.0,13.0,74,0.00,,CLR,0.00,649.00,VWS V14.00,2013-06-24 14:54:00,
2013-06-24 09:59:00,70.7,61.6,29.72,SSE,159,11.0,13.0,73,0.00,,CLR,0.00,459.00,VWS V14.00,2013-06-24 14:59:00,
2013-06-24 10:04:00,71.2,62.5,29.72,SE,140,6.0,12.0,74,0.00,,CLR,0.00,640.00,VWS V14.00,2013-06-24 15:04:00,
2013-06-24 10:09:00,71.8,63.1,29.72,SE,144,9.0,14.0,74,0.00,,CLR,0.00,647.00,VWS V14.00,2013-06-24 15:09:00,
2013-06-24 10:14:00,71.8,62.7,29.71,SSE,152,11.0,14.0,73,0.00,,CLR,0.00,744.00,VWS V14.00,2013-06-24 15:14:00,
2013-06-24 10:19:00,72.2,63.5,29.71,SSE,148,10.0,15.0,74,0.00,,CLR,0.00,737.00,VWS V14.00,2013-06-24 15:19:00,
2013-06-24 10:26:00,72.1,63.4,29.71,SSE,158,7.0,15.0,74,0.00,,CLR,0.00,594.00,VWS V14.00,2013-06-24 15:26:00,
2013-06-24 10:31:00,71.9,63.2,29.71,SSE,160,8.0,10.0,74,0.00,,CLR,0.00,311.00,VWS V14.00,2013-06-24 15:31:00,
2013-06-24 10:36:00,72.0,63.7,29.71,SSE,150,12.0,12.0,75,0.00,,BKN100,0.00,763.00,VWS V14.00,2013-06-24 15:36:00,
2013-06-24 10:41:00,72.3,63.6,29.71,SSE,150,9.0,13.0,74,0.00,,BKN100,0.00,754.00,VWS V14.00,2013-06-24 15:41:00,
2013-06-24 10:48:00,73.1,63.9,29.71,SSE,157,11.0,15.0,73,0.00,,BKN100,0.00,740.00,VWS V14.00,2013-06-24 15:48:00,
2013-06-24 10:53:00,73.5,64.7,29.71,SSE,151,8.0,17.0,74,0.00,,BKN100,0.00,749.00,VWS V14.00,2013-06-24 15:53:00,
2013-06-24 10:58:00,73.5,64.3,29.71,SSE,155,8.0,17.0,73,0.00,,BKN100,0.00,418.00,VWS V14.00,2013-06-24 15:58:00,
2013-06-24 11:03:00,73.3,64.5,29.71,SSE,166,11.0,13.0,74,0.00,,BKN100,0.00,564.00,VWS V14.00,2013-06-24 16:03:00,
2013-06-24 11:10:00,74.0,64.8,29.71,SSE,161,6.0,13.0,73,0.00,,BKN100,0.00,786.00,VWS V14.00,2013-06-24 16:10:00,
2013-06-24 11:15:00,74.7,66.3,29.70,SE,140,7.0,13.0,75,0.00,,BKN100,0.00,831.00,VWS V14.00,2013-06-24 16:15:00,
2013-06-24 11:20:00,74.6,64.6,29.71,SSE,168,7.0,13.0,71,0.00,,BKN100,0.00,376.00,VWS V14.00,2013-06-24 16:20:00,
2013-06-24 11:25:00,74.3,64.7,29.70,SE,143,6.0,13.0,72,0.00,,BKN100,0.00,976.00,VWS V14.00,2013-06-24 16:25:00,
2013-06-24 11:30:00,75.0,66.2,29.71,SSE,166,11.0,12.0,74,0.00,,BKN100,0.00,976.00,VWS V14.00,2013-06-24 16:30:00,
2013-06-24 11:35:00,75.1,64.2,29.71,SSE,153,8.0,15.0,69,0.00,,BKN100,0.00,490.00,VWS V14.00,2013-06-24 16:35:00,
2013-06-24 11:40:00,74.6,64.2,29.71,SSE,168,7.0,15.0,70,0.00,,BKN100,0.00,387.00,VWS V14.00,2013-06-24 16:40:00,
2013-06-24 11:45:00,75.0,65.8,29.71,SSE,161,10.0,15.0,73,0.00,,BKN100,0.00,1053.00,VWS V14.00,2013-06-24 16:45:00,
2013-06-24 11:51:00,75.0,66.2,29.70,SE,140,9.0,15.0,74,0.00,,BKN100,0.00,1130.00,VWS V14.00,2013-06-24 16:51:00,
2013-06-24 11:57:00,75.7,66.0,29.71,SSE,149,9.0,15.0,72,0.00,,BKN100,0.00,886.00,VWS V14.00,2013-06-24 16:57:00,
2013-06-24 12:03:00,75.7,66.4,29.70,SE,143,11.0,13.0,73,0.00,,BKN100,0.00,919.00,VWS V14.00,2013-06-24 17:03:00,
2013-06-24 12:08:00,75.8,66.9,29.70,SE,128,7.0,13.0,74,0.00,,BKN100,0.00,916.00,VWS V14.00,2013-06-24 17:08:00,
2013-06-24 12:13:00,76.2,66.9,29.70,SSE,161,8.0,14.0,73,0.00,,BKN100,0.00,935.00,VWS V14.00,2013-06-24 17:13:00,
2013-06-24 12:18:00,76.3,65.8,29.70,SSE,160,12.0,17.0,70,0.00,,BKN100,0.00,759.00,VWS V14.00,2013-06-24 17:18:00,
2013-06-24 12:23:00,76.3,65.4,29.70,SSE,157,8.0,17.0,69,0.00,,BKN100,0.00,889.00,VWS V14.00,2013-06-24 17:23:00,
2013-06-24 12:30:00,77.1,67.4,29.70,SSE,165,13.0,21.0,72,0.00,,BKN100,0.00,967.00,VWS V14.00,2013-06-24 17:30:00,
2013-06-24 12:35:00,77.6,67.5,29.69,South,175,12.0,16.0,71,0.00,,BKN100,0.00,925.00,VWS V14.00,2013-06-24 17:35:00,
2013-06-24 12:40:00,78.0,67.4,29.69,SE,131,5.0,17.0,70,0.00,,BKN100,0.00,868.00,VWS V14.00,2013-06-24 17:40:00,
2013-06-24 12:45:00,78.0,67.0,29.69,SSE,159,11.0,17.0,69,0.00,,BKN100,0.00,904.00,VWS V14.00,2013-06-24 17:45:00,
2013-06-24 12:50:00,78.3,66.9,29.69,SSE,147,8.0,19.0,68,0.00,,BKN100,0.00,926.00,VWS V14.00,2013-06-24 17:50:00,
2013-06-24 12:55:00,78.4,67.4,29.69,SSE,161,10.0,19.0,69,0.00,,BKN100,0.00,916.00,VWS V14.00,2013-06-24 17:55:00,
2013-06-24 13:01:00,78.4,67.0,29.68,SSE,157,4.0,11.0,68,0.00,,BKN100,0.00,942.00,VWS V14.00,2013-06-24 18:01:00,
2013-06-24 13:06:00,78.5,67.9,29.68,SSE,153,10.0,13.0,70,0.00,,BKN100,0.00,849.00,VWS V14.00,2013-06-24 18:06:00,
2013-06-24 13:13:00,78.4,67.4,29.68,SSE,163,7.0,13.0,69,0.00,,BKN100,0.00,849.00,VWS V14.00,2013-06-24 18:13:00,
2013-06-24 13:18:00,78.6,66.3,29.68,SSE,164,8.0,15.0,66,0.00,,BKN100,0.00,833.00,VWS V14.00,2013-06-24 18:18:00,
2013-06-24 13:23:00,79.0,67.1,29.68,SSE,168,12.0,15.0,67,0.00,,BKN100,0.00,613.00,VWS V14.00,2013-06-24 18:23:00,
2013-06-24 13:28:00,79.2,68.6,29.67,SE,136,13.0,17.0,70,0.00,,BKN100,0.00,531.00,VWS V14.00,2013-06-24 18:28:00,
2013-06-24 13:33:00,79.7,66.9,29.67,SE,139,13.0,17.0,65,0.00,,FEW095,0.00,884.00,VWS V14.00,2013-06-24 18:33:00,
2013-06-24 13:38:00,80.2,66.0,29.67,SSE,149,8.0,17.0,62,0.00,,FEW095,0.00,668.00,VWS V14.00,2013-06-24 18:38:00,
2013-06-24 13:44:00,80.6,65.4,29.67,SE,131,12.0,17.0,60,0.00,,FEW095,0.00,564.00,VWS V14.00,2013-06-24 18:44:00,
2013-06-24 13:49:00,80.9,67.1,29.67,SSE,156,9.0,17.0,63,0.00,,FEW095,0.00,575.00,VWS V14.00,2013-06-24 18:49:00,
2013-06-24 13:55:00,81.1,64.4,29.67,SE,137,14.0,17.0,57,0.00,,FEW095,0.00,652.00,VWS V14.00,2013-06-24 18:55:00,
2013-06-24 14:01:00,81.3,66.1,29.67,SE,133,9.0,15.0,60,0.00,,FEW095,0.00,737.00,VWS V14.00,2013-06-24 19:01:00,
2013-06-24 14:07:00,81.3,62.5,29.66,SSE,157,15.0,18.0,53,0.00,,FEW095,0.00,763.00,VWS V14.00,2013-06-24 19:07:00,
2013-06-24 14:12:00,81.6,64.9,29.66,SE,131,15.0,18.0,57,0.00,,FEW095,0.00,925.00,VWS V14.00,2013-06-24 19:12:00,
2013-06-24 14:19:00,81.9,63.6,29.66,SSE,162,13.0,18.0,54,0.00,,FEW095,0.00,907.00,VWS V14.00,2013-06-24 19:19:00,
2013-06-24 14:24:00,82.3,63.5,29.66,SE,143,10.0,18.0,53,0.00,,FEW095,0.00,918.00,VWS V14.00,2013-06-24 19:24:00,
2013-06-24 14:29:00,82.7,62.8,29.65,SSE,153,9.0,18.0,51,0.00,,FEW095,0.00,923.00,VWS V14.00,2013-06-24 19:29:00,
2013-06-24 14:34:00,82.8,62.3,29.65,SSE,157,10.0,18.0,50,0.00,,CLR,0.00,925.00,VWS V14.00,2013-06-24 19:34:00,
2013-06-24 14:39:00,82.9,61.2,29.65,SE,130,17.0,18.0,48,0.00,,CLR,0.00,914.00,VWS V14.00,2013-06-24 19:39:00,
2013-06-24 14:44:00,83.1,60.2,29.65,SSE,158,12.0,19.0,46,0.00,,CLR,0.00,937.00,VWS V14.00,2013-06-24 19:44:00,
2013-06-24 14:49:00,83.4,59.8,29.64,SE,126,10.0,19.0,45,0.00,,CLR,0.00,947.00,VWS V14.00,2013-06-24 19:49:00,
2013-06-24 14:55:00,83.2,58.4,29.64,SE,146,13.0,20.0,43,0.00,,CLR,0.00,475.00,VWS V14.00,2013-06-24 19:55:00,
2013-06-24 15:00:00,83.2,60.9,29.64,SE,131,9.0,13.0,47,0.00,,CLR,0.00,475.00,VWS V14.00,2013-06-24 20:00:00,
2013-06-24 15:05:00,83.1,60.2,29.64,SE,143,10.0,18.0,46,0.00,,CLR,0.00,401.00,VWS V14.00,2013-06-24 20:05:00,
2013-06-24 15:10:00,83.5,61.2,29.64,ESE,109,15.0,20.0,47,0.00,,CLR,0.00,914.00,VWS V14.00,2013-06-24 20:10:00,
2013-06-24 15:15:00,83.8,60.2,29.64,SE,126,11.0,22.0,45,0.00,,CLR,0.00,889.00,VWS V14.00,2013-06-24 20:15:00,
2013-06-24 15:21:00,84.2,60.0,29.64,ESE,117,13.0,22.0,44,0.00,,CLR,0.00,879.00,VWS V14.00,2013-06-24 20:21:00,
2013-06-24 15:26:00,84.2,60.6,29.64,ESE,118,16.0,22.0,45,0.00,,CLR,0.00,870.00,VWS V14.00,2013-06-24 20:26:00,
2013-06-24 15:31:00,84.6,59.0,29.63,SE,128,16.0,21.0,42,0.00,,CLR,0.00,863.00,VWS V14.00,2013-06-24 20:31:00,
2013-06-24 15:36:00,84.5,59.6,29.63,SE,135,12.0,22.0,43,0.00,,SCT085,0.00,858.00,VWS V14.00,2013-06-24 20:36:00,
2013-06-24 15:41:00,84.8,59.8,29.63,South,169,15.0,22.0,43,0.00,,SCT085,0.00,854.00,VWS V14.00,2013-06-24 20:41:00,
2013-06-24 15:47:00,85.1,58.8,29.63,SE,142,14.0,25.0,41,0.00,,SCT085,0.00,846.00,VWS V14.00,2013-06-24 20:47:00,
2013-06-24 15:53:00,85.3,57.6,29.63,South,171,10.0,25.0,39,0.00,,SCT085,0.00,837.00,VWS V14.00,2013-06-24 20:53:00,
2013-06-24 15:58:00,85.6,57.1,29.63,SSE,156,16.0,25.0,38,0.00,,SCT085,0.00,824.00,VWS V14.00,2013-06-24 20:58:00,
2013-06-24 16:03:00,85.3,59.0,29.63,SSE,159,13.0,20.0,41,0.00,,SCT085,0.00,812.00,VWS V14.00,2013-06-24 21:03:00,
2013-06-24 16:08:00,85.1,58.1,29.63,SSE,158,17.0,23.0,40,0.00,,SCT085,0.00,805.00,VWS V14.00,2013-06-24 21:08:00,
2013-06-24 16:14:00,85.0,59.4,29.63,SSE,153,17.0,24.0,42,0.00,,SCT085,0.00,796.00,VWS V14.00,2013-06-24 21:14:00,
2013-06-24 16:19:00,85.1,60.1,29.62,SSE,157,10.0,24.0,43,0.00,,SCT085,0.00,784.00,VWS V14.00,2013-06-24 21:19:00,
2013-06-24 16:24:00,85.2,60.8,29.62,SE,135,14.0,24.0,44,0.00,,SCT085,0.00,768.00,VWS V14.00,2013-06-24 21:24:00,
2013-06-24 16:29:00,85.3,61.6,29.62,SSE,149,8.0,24.0,45,0.00,,SCT085,0.00,763.00,VWS V14.00,2013-06-24 21:29:00,
2013-06-24 16:37:00,85.1,63.2,29.62,SSE,158,11.0,20.0,48,0.00,,CLR,0.00,756.00,VWS V14.00,2013-06-24 21:37:00,
2013-06-24 16:42:00,84.8,63.0,29.62,SSE,157,17.0,20.0,48,0.00,,CLR,0.00,761.00,VWS V14.00,2013-06-24 21:42:00,
2013-06-24 16:47:00,85.1,63.2,29.62,SE,146,21.0,21.0,48,0.00,,CLR,0.00,751.00,VWS V14.00,2013-06-24 21:47:00,
2013-06-24 16:52:00,84.7,65.1,29.62,SE,145,14.0,21.0,52,0.00,,CLR,0.00,796.00,VWS V14.00,2013-06-24 21:52:00,
2013-06-24 16:57:00,84.6,65.1,29.62,SSE,147,20.0,21.0,52,0.00,,CLR,0.00,190.00,VWS V14.00,2013-06-24 21:57:00,
2013-06-24 17:02:00,84.0,64.5,29.62,SSE,149,13.0,21.0,52,0.00,,CLR,0.00,735.00,VWS V14.00,2013-06-24 22:02:00,
2013-06-24 17:07:00,83.9,65.5,29.62,SSE,158,20.0,21.0,54,0.00,,CLR,0.00,765.00,VWS V14.00,2013-06-24 22:07:00,
2013-06-24 17:13:00,83.9,64.9,29.61,SSE,164,7.0,22.0,53,0.00,,CLR,0.00,239.00,VWS V14.00,2013-06-24 22:13:00,
2013-06-24 17:18:00,84.1,64.6,29.61,SSE,160,14.0,22.0,52,0.00,,CLR,0.00,788.00,VWS V14.00,2013-06-24 22:18:00,
2013-06-24 17:23:00,84.7,65.1,29.61,SSE,153,14.0,22.0,52,0.00,,CLR,0.00,802.00,VWS V14.00,2013-06-24 22:23:00,
2013-06-24 17:28:00,84.5,65.5,29.62,SSE,153,14.0,22.0,53,0.00,,CLR,0.00,752.00,VWS V14.00,2013-06-24 22:28:00,
2013-06-24 17:33:00,84.8,65.8,29.61,SE,142,17.0,18.0,53,0.00,,CLR,0.00,687.00,VWS V14.00,2013-06-24 22:33:00,
2013-06-24 17:38:00,84.7,65.7,29.62,SSE,157,12.0,24.0,53,0.00,,CLR,0.00,677.00,VWS V14.00,2013-06-24 22:38:00,
2013-06-24 17:43:00,84.7,65.1,29.61,SSE,167,12.0,24.0,52,0.00,,CLR,0.00,638.00,VWS V14.00,2013-06-24 22:43:00,
2013-06-24 17:48:00,84.4,66.5,29.61,South,175,9.0,24.0,55,0.00,,CLR,0.00,649.00,VWS V14.00,2013-06-24 22:48:00,
2013-06-24 17:53:00,83.7,65.3,29.61,South,169,11.0,24.0,54,0.00,,CLR,0.00,151.00,VWS V14.00,2013-06-24 22:53:00,
2013-06-24 17:58:00,82.9,65.1,29.61,South,182,12.0,24.0,55,0.00,,CLR,0.00,56.00,VWS V14.00,2013-06-24 22:58:00,
2013-06-24 18:03:00,81.7,64.5,29.61,South,171,7.0,18.0,56,0.00,,CLR,0.00,49.00,VWS V14.00,2013-06-24 23:03:00,
2013-06-24 18:08:00,81.1,63.9,29.60,South,184,12.0,18.0,56,0.00,,CLR,0.00,51.00,VWS V14.00,2013-06-24 23:08:00,
2013-06-24 18:13:00,81.1,64.4,29.60,South,189,11.0,18.0,57,0.00,,CLR,0.00,81.00,VWS V14.00,2013-06-24 23:13:00,
2013-06-24 18:19:00,82.5,65.8,29.60,South,180,10.0,18.0,57,0.00,,CLR,0.00,519.00,VWS V14.00,2013-06-24 23:19:00,
2013-06-24 18:25:00,83.8,63.8,29.60,SSE,156,16.0,18.0,51,0.00,,CLR,0.00,506.00,VWS V14.00,2013-06-24 23:25:00,
2013-06-24 18:30:00,84.0,66.6,29.60,South,180,9.0,9.0,56,0.00,,CLR,0.00,476.00,VWS V14.00,2013-06-24 23:30:00,
2013-06-24 18:35:00,84.1,66.7,29.61,SE,143,6.0,11.0,56,0.00,,FEW075,0.00,446.00,VWS V14.00,2013-06-24 23:35:00,
2013-06-24 18:40:00,83.9,66.5,29.60,SSE,156,13.0,17.0,56,0.00,,FEW075,0.00,445.00,VWS V14.00,2013-06-24 23:40:00,
2013-06-24 18:45:00,83.8,65.9,29.60,SSE,163,11.0,17.0,55,0.00,,FEW075,0.00,429.00,VWS V14.00,2013-06-24 23:45:00,
2013-06-24 18:51:00,83.6,65.7,29.60,South,173,10.0,20.0,55,0.00,,FEW075,0.00,413.00,VWS V14.00,2013-06-24 23:51:00,
2013-06-24 18:56:00,83.5,65.7,29.61,South,180,11.0,20.0,55,0.00,,FEW075,0.00,394.00,VWS V14.00,2013-06-24 23:56:00,
2013-06-24 19:01:00,83.5,65.7,29.61,SSE,156,11.0,14.0,55,0.00,,FEW075,0.00,380.00,VWS V14.00,2013-06-25 00:01:00,
2013-06-24 19:07:00,83.5,64.6,29.61,South,169,10.0,17.0,53,0.00,,FEW075,0.00,362.00,VWS V14.00,2013-06-25 00:07:00,
2013-06-24 19:12:00,83.4,65.0,29.61,SSE,162,7.0,17.0,54,0.00,,CLR,0.00,345.00,VWS V14.00,2013-06-25 00:12:00,
2013-06-24 19:17:00,83.4,64.0,29.61,SSE,159,7.0,17.0,52,0.00,,CLR,0.00,336.00,VWS V14.00,2013-06-25 00:17:00,
2013-06-24 19:23:00,83.2,65.4,29.61,South,180,6.0,17.0,55,0.00,,CLR,0.00,320.00,VWS V14.00,2013-06-25 00:23:00,
2013-06-24 19:28:00,82.9,65.6,29.61,South,184,10.0,17.0,56,0.00,,CLR,0.00,302.00,VWS V14.00,2013-06-25 00:28:00,
2013-06-24 19:36:00,82.7,64.4,29.61,South,173,8.0,12.0,54,0.00,,CLR,0.00,285.00,VWS V14.00,2013-06-25 00:36:00,
2013-06-24 19:42:00,82.4,64.6,29.61,South,178,6.0,12.0,55,0.00,,CLR,0.00,264.00,VWS V14.00,2013-06-25 00:42:00,
2013-06-24 19:47:00,82.3,64.5,29.61,SSE,164,7.0,12.0,55,0.00,,CLR,0.00,248.00,VWS V14.00,2013-06-25 00:47:00,
2013-06-24 19:54:00,82.1,64.3,29.61,SSE,166,6.0,12.0,55,0.00,,CLR,0.00,229.00,VWS V14.00,2013-06-25 00:54:00,
2013-06-24 20:03:00,81.7,64.5,29.61,South,169,4.0,9.0,56,0.00,,CLR,0.00,190.00,VWS V14.00,2013-06-25 01:03:00,
2013-06-24 20:08:00,81.5,63.3,29.61,SSE,161,8.0,10.0,54,0.00,,CLR,0.00,174.00,VWS V14.00,2013-06-25 01:08:00,
2013-06-24 20:13:00,81.4,62.6,29.61,SSE,165,7.0,10.0,53,0.00,,CLR,0.00,146.00,VWS V14.00,2013-06-25 01:13:00,
2013-06-24 20:19:00,81.2,63.5,29.61,SSE,162,6.0,10.0,55,0.00,,CLR,0.00,128.00,VWS V14.00,2013-06-25 01:19:00,
2013-06-24 20:24:00,81.0,63.3,29.61,SSE,153,5.0,10.0,55,0.00,,CLR,0.00,100.00,VWS V14.00,2013-06-25 01:24:00,
2013-06-24 20:29:00,80.7,64.1,29.61,SSE,153,4.0,10.0,57,0.00,,CLR,0.00,104.00,VWS V14.00,2013-06-25 01:29:00,
2013-06-24 20:36:00,80.5,63.9,29.61,SSE,151,4.0,8.0,57,0.00,,CLR,0.00,93.00,VWS V14.00,2013-06-25 01:36:00,
2013-06-24 20:41:00,80.2,64.1,29.61,SSE,151,6.0,8.0,58,0.00,,CLR,0.00,84.00,VWS V14.00,2013-06-25 01:41:00,
2013-06-24 20:46:00,80.0,64.4,29.61,SSE,152,6.0,8.0,59,0.00,,CLR,0.00,69.00,VWS V14.00,2013-06-25 01:46:00,
2013-06-24 20:51:00,79.5,64.4,29.60,SSE,153,6.0,8.0,60,0.00,,CLR,0.00,51.00,VWS V14.00,2013-06-25 01:51:00,
2013-06-24 20:56:00,79.1,65.0,29.61,SSE,153,4.0,8.0,62,0.00,,CLR,0.00,39.00,VWS V14.00,2013-06-25 01:56:00,
2013-06-24 21:02:00,78.5,64.9,29.61,SSE,153,4.0,6.0,63,0.00,,CLR,0.00,32.00,VWS V14.00,2013-06-25 02:02:00,
2013-06-24 21:07:00,78.2,64.6,29.61,SE,136,6.0,9.0,63,0.00,,CLR,0.00,28.00,VWS V14.00,2013-06-25 02:07:00,
2013-06-24 21:12:00,78.0,64.8,29.61,SE,136,8.0,9.0,64,0.00,,CLR,0.00,25.00,VWS V14.00,2013-06-25 02:12:00,
2013-06-24 21:17:00,77.7,65.0,29.61,SE,136,7.0,9.0,65,0.00,,CLR,0.00,19.00,VWS V14.00,2013-06-25 02:17:00,
2013-06-24 21:23:00,77.1,64.4,29.61,SE,137,5.0,9.0,65,0.00,,CLR,0.00,16.00,VWS V14.00,2013-06-25 02:23:00,
2013-06-24 21:29:00,76.8,63.7,29.61,SSE,153,8.0,12.0,64,0.00,,CLR,0.00,11.00,VWS V14.00,2013-06-25 02:29:00,
2013-06-24 21:34:00,76.8,63.7,29.61,SSE,150,11.0,13.0,64,0.00,,CLR,0.00,9.00,VWS V14.00,2013-06-25 02:34:00,
2013-06-24 21:39:00,76.4,63.8,29.61,SE,142,6.0,13.0,65,0.00,,CLR,0.00,7.00,VWS V14.00,2013-06-25 02:39:00,
2013-06-24 21:44:00,76.2,63.6,29.61,SSE,160,10.0,14.0,65,0.00,,CLR,0.00,5.00,VWS V14.00,2013-06-25 02:44:00,
2013-06-24 21:49:00,76.0,63.8,29.62,SSE,153,12.0,14.0,66,0.00,,CLR,0.00,0.00,VWS V14.00,2013-06-25 02:49:00,
2013-06-24 21:54:00,75.7,64.0,29.62,SSE,155,10.0,14.0,67,0.00,,CLR,0.00,0.00,VWS V14.00,2013-06-25 02:54:00,
2013-06-24 21:59:00,75.3,64.0,29.62,SSE,150,9.0,14.0,68,0.00,,CLR,0.00,0.00,VWS V14.00,2013-06-25 02:59:00,
2013-06-24 22:04:00,74.9,63.6,29.62,SSE,158,7.0,13.0,68,0.00,,CLR,0.00,0.00,VWS V14.00,2013-06-25 03:04:00,
2013-06-24 22:09:00,74.8,64.0,29.62,SSE,152,10.0,13.0,69,0.00,,CLR,0.00,0.00,VWS V14.00,2013-06-25 03:09:00,
2013-06-24 22:14:00,74.5,63.7,29.62,SSE,157,9.0,13.0,69,0.00,,CLR,0.00,0.00,VWS V14.00,2013-06-25 03:14:00,
2013-06-24 22:20:00,74.3,63.5,29.62,SSE,154,7.0,13.0,69,0.00,,CLR,0.00,0.00,VWS V14.00,2013-06-25 03:20:00,
2013-06-24 22:27:00,74.2,63.0,29.63,SSE,152,10.0,14.0,68,0.00,,CLR,0.00,0.00,VWS V14.00,2013-06-25 03:27:00,
2013-06-24 22:32:00,73.9,62.7,29.63,SE,145,9.0,15.0,68,0.00,,CLR,0.00,0.00,VWS V14.00,2013-06-25 03:32:00,
2013-06-24 22:38:00,73.8,62.6,29.63,SSE,147,7.0,15.0,68,0.00,,CLR,0.00,0.00,VWS V14.00,2013-06-25 03:38:00,
2013-06-24 22:48:00,72.9,62.1,29.64,SE,133,9.0,15.0,69,0.00,,CLR,0.00,0.00,VWS V14.00,2013-06-25 03:48:00,
2013-06-24 22:55:00,72.1,62.2,29.64,SE,139,8.0,15.0,71,0.00,,CLR,0.00,0.00,VWS V14.00,2013-06-25 03:55:00,
2013-06-24 23:01:00,71.7,62.2,29.63,SE,141,8.0,12.0,72,0.00,,CLR,0.00,0.00,VWS V14.00,2013-06-25 04:01:00,
2013-06-24 23:02:00,71.7,62.2,29.63,SE,136,11.0,12.0,72,0.00,,CLR,0.00,0.00,VWS V14.00,2013-06-25 04:02:00,
2013-06-24 23:03:00,71.6,62.1,29.63,SE,137,12.0,12.0,72,0.00,,CLR,0.00,0.00,VWS V14.00,2013-06-25 04:03:00,
2013-06-24 23:05:00,71.6,62.5,29.63,SE,140,5.0,13.0,73,0.00,,CLR,0.00,0.00,VWS V14.00,2013-06-25 04:05:00,
2013-06-24 23:08:00,71.3,62.2,29.63,SE,136,5.0,13.0,73,0.00,,CLR,0.00,0.00,VWS V14.00,2013-06-25 04:08:00,
2013-06-24 23:13:00,71.0,62.3,29.63,SE,138,8.0,13.0,74,0.00,,CLR,0.00,0.00,VWS V14.00,2013-06-25 04:13:00,
2013-06-24 23:18:00,70.7,62.4,29.63,SE,142,8.0,13.0,75,0.00,,CLR,0.00,0.00,VWS V14.00,2013-06-25 04:18:00,
2013-06-24 23:23:00,70.7,62.4,29.63,SE,141,10.0,13.0,75,0.00,,CLR,0.00,0.00,VWS V14.00,2013-06-25 04:23:00,
2013-06-24 23:28:00,70.6,62.3,29.63,SE,135,6.0,13.0,75,0.00,,CLR,0.00,0.00,VWS V14.00,2013-06-25 04:28:00,
2013-06-24 23:33:00,70.4,62.5,29.63,SE,134,7.0,11.0,76,0.00,,CLR,0.00,0.00,VWS V14.00,2013-06-25 04:33:00,
2013-06-24 23:38:00,70.4,62.5,29.63,SE,132,12.0,12.0,76,0.00,,CLR,0.00,0.00,VWS V14.00,2013-06-25 04:38:00,
2013-06-24 23:43:00,70.3,62.8,29.63,SE,128,12.0,12.0,77,0.00,,CLR,0.00,0.00,VWS V14.00,2013-06-25 04:43:00,
2013-06-24 23:48:00,70.3,62.8,29.62,SE,130,10.0,13.0,77,0.00,,CLR,0.00,0.00,VWS V14.00,2013-06-25 04:48:00,
2013-06-24 23:53:00,70.2,63.0,29.62,SE,134,10.0,15.0,78,0.00,,CLR,0.00,0.00,VWS V14.00,2013-06-25 04:53:00,
2013-06-24 23:58:00,70.2,63.0,29.62,SE,132,12.0,17.0,78,0.00,,CLR,0.00,0.00,VWS V14.00,2013-06-25 04:58:00,